Welcome to Des Moines Iowa Weather. I am an independent private personal weather station on the Northwest Side of Des Moines, Iowa. Just East of Windsor Heights and just West of Glendale . This site is also mobile friendly.

There are no active watches, warnings or advisories


Visit our other weather sites:

Historical Data

Weather Station Setup



Weather Underground History page Text

Daily Summary for February 28, 2018 Units:  Metric    English   Both
« Previous Day
Next Day »
Daily Weekly Monthly Yearly Custom
  High: Low: Average:
Temperature: 11.4 °C 1.4 °C 5.4 °C
Dew Point: 7.2 °C -1.1 °C 2.9 °C
Humidity: 89 % 74 % 84 %
Wind Speed: 9.7 km/h 0 km/h 2.7 km/h
Wind Gust: 22.5 km/h - -
Wind:- - SW
Pressure: 1012.8 hPa 1008 hPa -
Precipitation: 0 mm    
Historical Graphs
 
 
Tabular Data for February 28, 2018
Time Temperature Dew Point Pressure Wind Wind Speed Wind Gust Humidity Rainfall Rate (Hourly)
00:00 5.8 °C 3.8 °C 1010 hPa Calm   3.2 km/h 87 % 0 mm
00:05 5.8 °C 3.8 °C 1010 hPa Calm   3.2 km/h 87 % 0 mm
00:10 5.9 °C 3.8 °C 1010 hPa NNW 1.6 km/h 4.8 km/h 86 % 0 mm
00:13 6 °C 3.9 °C 1010 hPa NW 3.2 km/h 6.4 km/h 86 % 0 mm
00:15 5.9 °C 3.8 °C 1010 hPa NNW 1.6 km/h 4.8 km/h 86 % 0 mm
00:20 5.9 °C 3.8 °C 1010 hPa NNW 1.6 km/h 4.8 km/h 86 % 0 mm
00:25 6 °C 3.8 °C 1010 hPa NW 1.6 km/h 6.4 km/h 86 % 0 mm
00:28 6 °C 3.9 °C 1009.7 hPa Calm   4.8 km/h 85 % 0 mm
00:30 6 °C 3.8 °C 1010 hPa NW 1.6 km/h 6.4 km/h 86 % 0 mm
00:35 6 °C 3.8 °C 1010 hPa NW 1.6 km/h 6.4 km/h 86 % 0 mm
00:40 6 °C 3.7 °C 1010 hPa North 1.6 km/h 6.4 km/h 85 % 0 mm
00:43 5.9 °C 3.3 °C 1010 hPa North 3.2 km/h 4.8 km/h 84 % 0 mm
00:45 6 °C 3.7 °C 1010 hPa North 1.6 km/h 6.4 km/h 85 % 0 mm
00:50 6 °C 3.7 °C 1010 hPa North 1.6 km/h 6.4 km/h 85 % 0 mm
00:55 5.9 °C 3.4 °C 1010 hPa Calm   4.8 km/h 84 % 0 mm
00:59 5.8 °C 3.3 °C 1010 hPa Calm   6.4 km/h 84 % 0 mm
01:00 5.9 °C 3.4 °C 1010 hPa Calm   4.8 km/h 84 % 0 mm
01:05 5.9 °C 3.4 °C 1010 hPa Calm   4.8 km/h 84 % 0 mm
01:10 5.8 °C 3.3 °C 1010 hPa NW 1.6 km/h 6.4 km/h 84 % 0 mm
01:14 5.7 °C 3.3 °C 1010 hPa NW 1.6 km/h 9.7 km/h 84 % 0 mm
01:15 5.8 °C 3.3 °C 1010 hPa NW 1.6 km/h 6.4 km/h 84 % 0 mm
01:20 5.8 °C 3.3 °C 1010 hPa NW 1.6 km/h 6.4 km/h 84 % 0 mm
01:25 5.6 °C 3.1 °C 1010 hPa NW 1.6 km/h 9.7 km/h 84 % 0 mm
01:29 5.3 °C 2.8 °C 1009.7 hPa Calm   8 km/h 84 % 0 mm
01:30 5.6 °C 3.1 °C 1010 hPa NW 1.6 km/h 9.7 km/h 84 % 0 mm
01:35 5.6 °C 3.1 °C 1010 hPa NW 1.6 km/h 9.7 km/h 84 % 0 mm
01:40 5.3 °C 2.8 °C 1010 hPa North 3.2 km/h 8 km/h 84 % 0 mm
01:44 5.1 °C 2.8 °C 1010 hPa Calm   8 km/h 85 % 0 mm
01:45 5.3 °C 2.8 °C 1010 hPa North 3.2 km/h 8 km/h 84 % 0 mm
01:50 5.3 °C 2.8 °C 1010 hPa North 3.2 km/h 8 km/h 84 % 0 mm
01:55 5.1 °C 2.8 °C 1010 hPa WNW 1.6 km/h 8 km/h 85 % 0 mm
01:59 4.9 °C 2.8 °C 1010.4 hPa NW 1.6 km/h 4.8 km/h 86 % 0 mm
02:00 5.1 °C 2.8 °C 1010 hPa WNW 1.6 km/h 8 km/h 85 % 0 mm
02:05 5.1 °C 2.8 °C 1010 hPa WNW 1.6 km/h 8 km/h 85 % 0 mm
02:10 4.9 °C 2.8 °C 1010.4 hPa NW 1.6 km/h 4.8 km/h 86 % 0 mm
02:14 4.8 °C 2.8 °C 1010.4 hPa Calm   4.8 km/h 86 % 0 mm
02:15 4.9 °C 2.8 °C 1010.4 hPa NW 1.6 km/h 4.8 km/h 86 % 0 mm
02:20 4.9 °C 2.8 °C 1010.4 hPa NW 1.6 km/h 4.8 km/h 86 % 0 mm
02:25 4.8 °C 2.7 °C 1010.4 hPa Calm   4.8 km/h 86 % 0 mm
02:29 4.7 °C 2.8 °C 1010 hPa Calm   4.8 km/h 86 % 0 mm
02:30 4.8 °C 2.7 °C 1010.4 hPa Calm   4.8 km/h 86 % 0 mm
02:35 4.8 °C 2.7 °C 1010.4 hPa Calm   4.8 km/h 86 % 0 mm
02:40 4.7 °C 2.6 °C 1010 hPa Calm   4.8 km/h 86 % 0 mm
02:44 4.7 °C 2.8 °C 1009.7 hPa NW 1.6 km/h 6.4 km/h 87 % 0 mm
02:45 4.7 °C 2.6 °C 1010 hPa Calm   4.8 km/h 86 % 0 mm
02:50 4.7 °C 2.6 °C 1010 hPa Calm   4.8 km/h 86 % 0 mm
02:55 4.7 °C 2.7 °C 1010 hPa NW 1.6 km/h 6.4 km/h 87 % 0 mm
02:59 4.6 °C 2.8 °C 1009.7 hPa NW 1.6 km/h 4.8 km/h 87 % 0 mm
03:00 4.7 °C 2.7 °C 1010 hPa NW 1.6 km/h 6.4 km/h 87 % 0 mm
03:05 4.7 °C 2.7 °C 1010 hPa NW 1.6 km/h 6.4 km/h 87 % 0 mm
03:10 4.6 °C 2.6 °C 1009.7 hPa Calm   4.8 km/h 87 % 0 mm
03:14 4.5 °C 2.8 °C 1009.4 hPa Calm   1.6 km/h 87 % 0 mm
03:15 4.6 °C 2.6 °C 1009.7 hPa Calm   4.8 km/h 87 % 0 mm
03:20 4.6 °C 2.6 °C 1009.7 hPa Calm   4.8 km/h 87 % 0 mm
03:25 4.5 °C 2.5 °C 1009.7 hPa Calm   3.2 km/h 87 % 0 mm
03:29 4.4 °C 2.8 °C 1009 hPa Calm     87 % 0 mm
03:30 4.5 °C 2.5 °C 1009.7 hPa Calm   3.2 km/h 87 % 0 mm
03:35 4.5 °C 2.5 °C 1009.7 hPa Calm   3.2 km/h 87 % 0 mm
03:40 4.4 °C 2.6 °C 1009.4 hPa Calm     88 % 0 mm
03:45 4.4 °C 2.8 °C 1009.4 hPa Calm   1.6 km/h 88 % 0 mm
03:50 4.4 °C 2.6 °C 1009.4 hPa Calm     88 % 0 mm
03:55 4.4 °C 2.6 °C 1009.4 hPa Calm   1.6 km/h 88 % 0 mm
03:59 4.4 °C 2.8 °C 1009 hPa Calm   4.8 km/h 88 % 0 mm
04:00 4.4 °C 2.6 °C 1009.4 hPa Calm   1.6 km/h 88 % 0 mm
04:05 4.4 °C 2.6 °C 1009.4 hPa Calm   1.6 km/h 88 % 0 mm
04:10 4.4 °C 2.6 °C 1009 hPa Calm   4.8 km/h 88 % 0 mm
04:14 4.4 °C 2.8 °C 1009.4 hPa Calm     88 % 0 mm
04:15 4.4 °C 2.6 °C 1009 hPa Calm   4.8 km/h 88 % 0 mm
04:20 4.4 °C 2.6 °C 1009 hPa Calm   4.8 km/h 88 % 0 mm
04:25 4.4 °C 2.6 °C 1009.4 hPa Calm     88 % 0 mm
04:29 4.4 °C 2.8 °C 1009 hPa Calm     88 % 0 mm
04:30 4.4 °C 2.6 °C 1009.4 hPa Calm     88 % 0 mm
04:35 4.4 °C 2.6 °C 1009.4 hPa Calm     88 % 0 mm
04:40 4.4 °C 2.6 °C 1009.4 hPa Calm     88 % 0 mm
04:44 4.3 °C 2.8 °C 1008.7 hPa Calm     88 % 0 mm
04:45 4.4 °C 2.6 °C 1009.4 hPa Calm     88 % 0 mm
04:50 4.4 °C 2.6 °C 1009.4 hPa Calm     88 % 0 mm
04:55 4.3 °C 2.5 °C 1008.7 hPa Calm     88 % 0 mm
04:59 4.2 °C 2.2 °C 1009 hPa Calm     87 % 0 mm
05:00 4.3 °C 2.5 °C 1008.7 hPa Calm     88 % 0 mm
05:05 4.3 °C 2.5 °C 1008.7 hPa Calm     88 % 0 mm
05:10 4.2 °C 2.2 °C 1009 hPa Calm     87 % 0 mm
05:14 4.1 °C 2.2 °C 1009.4 hPa Calm     88 % 0 mm
05:15 4.2 °C 2.2 °C 1009 hPa Calm     87 % 0 mm
05:20 4.2 °C 2.2 °C 1009 hPa Calm     87 % 0 mm
05:25 4.1 °C 2.2 °C 1009.4 hPa Calm     88 % 0 mm
05:29 3.9 °C 2.2 °C 1009.4 hPa Calm   4.8 km/h 88 % 0 mm
05:30 4.1 °C 2.2 °C 1009.4 hPa Calm     88 % 0 mm
05:35 4.1 °C 2.2 °C 1009.4 hPa Calm     88 % 0 mm
05:40 3.9 °C 2.1 °C 1009.4 hPa Calm   4.8 km/h 88 % 0 mm
05:44 3.8 °C 2.2 °C 1009.4 hPa Calm   4.8 km/h 88 % 0 mm
05:45 3.9 °C 2.1 °C 1009.4 hPa Calm   4.8 km/h 88 % 0 mm
05:50 3.9 °C 2.1 °C 1009.4 hPa Calm   4.8 km/h 88 % 0 mm
05:55 3.8 °C 2.1 °C 1009.4 hPa NW 1.6 km/h 4.8 km/h 88 % 0 mm
05:59 3.7 °C 1.7 °C 1009 hPa Calm   3.2 km/h 88 % 0 mm
06:00 3.8 °C 2.1 °C 1009.4 hPa NW 1.6 km/h 4.8 km/h 88 % 0 mm
06:05 3.8 °C 2.1 °C 1009.4 hPa NW 1.6 km/h 4.8 km/h 88 % 0 mm
06:10 3.7 °C 1.9 °C 1009.4 hPa Calm   6.4 km/h 88 % 0 mm
06:14 3.4 °C 1.7 °C 1009.7 hPa Calm   6.4 km/h 88 % 0 mm
06:15 3.7 °C 1.9 °C 1009.4 hPa Calm   6.4 km/h 88 % 0 mm
06:20 3.7 °C 1.9 °C 1009.4 hPa Calm   6.4 km/h 88 % 0 mm
06:25 3.4 °C 1.6 °C 1009.7 hPa NW 1.6 km/h 8 km/h 88 % 0 mm
06:29 3.1 °C 1.1 °C 1010 hPa Calm   6.4 km/h 88 % 0 mm
06:30 3.4 °C 1.6 °C 1009.7 hPa NW 1.6 km/h 8 km/h 88 % 0 mm
06:35 3.4 °C 1.6 °C 1009.7 hPa NW 1.6 km/h 8 km/h 88 % 0 mm
06:40 3.1 °C 1.3 °C 1010 hPa NW 1.6 km/h 6.4 km/h 88 % 0 mm
06:44 2.9 °C 1.1 °C 1009.7 hPa Calm   4.8 km/h 88 % 0 mm
06:45 3.1 °C 1.3 °C 1010 hPa NW 1.6 km/h 6.4 km/h 88 % 0 mm
06:50 3.1 °C 1.3 °C 1010 hPa NW 1.6 km/h 6.4 km/h 88 % 0 mm
06:55 2.9 °C 1.2 °C 1009.7 hPa NW 1.6 km/h 4.8 km/h 88 % 0 mm
06:59 2.7 °C 1.1 °C 1009.7 hPa Calm   3.2 km/h 88 % 0 mm
07:00 2.9 °C 1.2 °C 1009.7 hPa NW 1.6 km/h 4.8 km/h 88 % 0 mm
07:05 2.9 °C 1.2 °C 1009.7 hPa NW 1.6 km/h 4.8 km/h 88 % 0 mm
07:10 2.7 °C 0.9 °C 1010 hPa Calm   4.8 km/h 88 % 0 mm
07:14 2.7 °C 1.1 °C 1010 hPa Calm   4.8 km/h 88 % 0 mm
07:15 2.7 °C 0.9 °C 1010 hPa Calm   4.8 km/h 88 % 0 mm
07:20 2.7 °C 0.9 °C 1010 hPa Calm   4.8 km/h 88 % 0 mm
07:25 2.6 °C 0.8 °C 1010 hPa Calm   4.8 km/h 88 % 0 mm
07:30 2.6 °C 1.1 °C 1010 hPa Calm   6.4 km/h 89 % 0 mm
07:35 2.6 °C 0.8 °C 1010 hPa Calm   4.8 km/h 88 % 0 mm
07:40 2.6 °C 0.9 °C 1010 hPa Calm   6.4 km/h 89 % 0 mm
07:44 2.4 °C 0.6 °C 1010 hPa Calm   6.4 km/h 88 % 0 mm
07:45 2.6 °C 0.9 °C 1010 hPa Calm   6.4 km/h 89 % 0 mm
07:50 2.6 °C 0.9 °C 1010 hPa Calm   6.4 km/h 89 % 0 mm
07:55 2.4 °C 0.7 °C 1010 hPa NW 1.6 km/h 6.4 km/h 88 % 0 mm
07:59 2.4 °C 0.6 °C 1009.7 hPa North 6.4 km/h 9.7 km/h 88 % 0 mm
08:00 2.4 °C 0.7 °C 1010 hPa NW 1.6 km/h 6.4 km/h 88 % 0 mm
08:05 2.4 °C 0.7 °C 1010 hPa NW 1.6 km/h 6.4 km/h 88 % 0 mm
08:10 2.4 °C 0.7 °C 1010 hPa NW 1.6 km/h 9.7 km/h 88 % 0 mm
08:14 2.5 °C 0.6 °C 1010 hPa North 3.2 km/h 4.8 km/h 88 % 0 mm
08:15 2.4 °C 0.7 °C 1010 hPa NW 1.6 km/h 9.7 km/h 88 % 0 mm
08:20 2.4 °C 0.7 °C 1010 hPa NW 1.6 km/h 9.7 km/h 88 % 0 mm
08:25 2.5 °C 0.7 °C 1010 hPa North 1.6 km/h 9.7 km/h 88 % 0 mm
08:29 2.6 °C 0.6 °C 1009.7 hPa North 1.6 km/h 8 km/h 88 % 0 mm
08:30 2.5 °C 0.7 °C 1010 hPa North 1.6 km/h 9.7 km/h 88 % 0 mm
08:35 2.5 °C 0.7 °C 1010 hPa North 1.6 km/h 9.7 km/h 88 % 0 mm
08:40 2.6 °C 0.8 °C 1010 hPa North 3.2 km/h 9.7 km/h 88 % 0 mm
08:45 2.7 °C 1.1 °C 1009.7 hPa Calm   4.8 km/h 88 % 0 mm
08:50 2.6 °C 0.8 °C 1010 hPa North 3.2 km/h 9.7 km/h 88 % 0 mm
08:55 2.7 °C 0.9 °C 1009.7 hPa North 1.6 km/h 8 km/h 88 % 0 mm
09:00 2.9 °C 1.1 °C 1009.7 hPa Calm   4.8 km/h 88 % 0 mm
09:05 2.7 °C 0.9 °C 1009.7 hPa North 1.6 km/h 8 km/h 88 % 0 mm
09:10 2.9 °C 1.1 °C 1009.7 hPa Calm   4.8 km/h 88 % 0 mm
09:15 3.1 °C 1.1 °C 1009.7 hPa Calm   3.2 km/h 88 % 0 mm
09:20 2.9 °C 1.1 °C 1009.7 hPa Calm   4.8 km/h 88 % 0 mm
09:25 3.1 °C 1.3 °C 1010 hPa Calm   4.8 km/h 88 % 0 mm
09:30 3.3 °C 1.7 °C 1010 hPa Calm   3.2 km/h 88 % 0 mm
09:35 3.1 °C 1.3 °C 1010 hPa Calm   4.8 km/h 88 % 0 mm
09:40 3.3 °C 1.6 °C 1010 hPa Calm   4.8 km/h 88 % 0 mm
09:45 3.8 °C 2.2 °C 1009.4 hPa Calm   6.4 km/h 88 % 0 mm
09:50 3.3 °C 1.6 °C 1010 hPa Calm   4.8 km/h 88 % 0 mm
09:55 3.8 °C 2.1 °C 1009.7 hPa Calm   6.4 km/h 88 % 0 mm
10:00 4.3 °C 2.2 °C 1009.7 hPa North 1.6 km/h 4.8 km/h 87 % 0 mm
10:05 3.8 °C 2.1 °C 1009.7 hPa Calm   6.4 km/h 88 % 0 mm
10:10 4.3 °C 2.3 °C 1009.7 hPa Calm   4.8 km/h 87 % 0 mm
10:15 4.7 °C 2.8 °C 1009.7 hPa Calm     86 % 0 mm
10:20 4.3 °C 2.3 °C 1009.7 hPa Calm   4.8 km/h 87 % 0 mm
10:25 4.7 °C 2.5 °C 1010 hPa Calm   3.2 km/h 86 % 0 mm
10:30 4.9 °C 2.8 °C 1009.7 hPa Calm     86 % 0 mm
10:35 4.7 °C 2.5 °C 1010 hPa Calm   3.2 km/h 86 % 0 mm
10:40 4.9 °C 2.8 °C 1010 hPa Calm     86 % 0 mm
10:45 5.3 °C 2.8 °C 1009.7 hPa Calm     85 % 0 mm
10:50 4.9 °C 2.8 °C 1010 hPa Calm     86 % 0 mm
10:55 5.3 °C 2.9 °C 1009.7 hPa Calm     85 % 0 mm
11:00 5.6 °C 3.3 °C 1009.7 hPa North 1.6 km/h 6.4 km/h 84 % 0 mm
11:05 5.3 °C 2.9 °C 1009.7 hPa Calm     85 % 0 mm
11:10 5.6 °C 3.1 °C 1009.7 hPa Calm   6.4 km/h 84 % 0 mm
11:15 5.9 °C 3.3 °C 1009.4 hPa NW 1.6 km/h 8 km/h 83 % 0 mm
11:20 5.6 °C 3.1 °C 1009.7 hPa Calm   6.4 km/h 84 % 0 mm
11:25 5.9 °C 3.3 °C 1009.7 hPa North 1.6 km/h 8 km/h 83 % 0 mm
11:30 6.6 °C 3.9 °C 1009.7 hPa Calm   4.8 km/h 83 % 0 mm
11:35 5.9 °C 3.3 °C 1009.7 hPa North 1.6 km/h 8 km/h 83 % 0 mm
11:40 6.6 °C 3.9 °C 1009.7 hPa Calm   4.8 km/h 83 % 0 mm
11:45 7.2 °C 4.4 °C 1009.7 hPa Calm   8 km/h 82 % 0 mm
11:50 6.6 °C 3.9 °C 1009.7 hPa Calm   4.8 km/h 83 % 0 mm
11:55 7.2 °C 4.3 °C 1010 hPa North 1.6 km/h 8 km/h 82 % 0 mm
12:00 7.8 °C 5 °C 1009.7 hPa NW 3.2 km/h 12.9 km/h 81 % 0 mm
12:05 7.2 °C 4.3 °C 1010 hPa North 1.6 km/h 8 km/h 82 % 0 mm
12:10 7.8 °C 4.8 °C 1009.7 hPa North 1.6 km/h 12.9 km/h 81 % 0 mm
12:15 8.4 °C 5 °C 1009.7 hPa NW 3.2 km/h 6.4 km/h 79 % 0 mm
12:20 7.8 °C 4.8 °C 1009.7 hPa North 1.6 km/h 12.9 km/h 81 % 0 mm
12:25 8.4 °C 5 °C 1009.7 hPa NW 1.6 km/h 12.9 km/h 79 % 0 mm
12:30 9.1 °C 5.6 °C 1009.4 hPa NW 3.2 km/h 8 km/h 78 % 0 mm
12:35 8.4 °C 5 °C 1009.7 hPa NW 1.6 km/h 12.9 km/h 79 % 0 mm
12:40 9.1 °C 5.4 °C 1009.4 hPa NW 3.2 km/h 8 km/h 78 % 0 mm
12:45 9.4 °C 5.6 °C 1009 hPa NW 3.2 km/h 9.7 km/h 77 % 0 mm
12:50 9.1 °C 5.4 °C 1009.4 hPa NW 3.2 km/h 8 km/h 78 % 0 mm
12:55 9.4 °C 5.6 °C 1009 hPa North 3.2 km/h 9.7 km/h 77 % 0 mm
13:00 9.8 °C 5.6 °C 1008.7 hPa North 3.2 km/h 9.7 km/h 76 % 0 mm
13:05 9.4 °C 5.6 °C 1009 hPa North 3.2 km/h 9.7 km/h 77 % 0 mm
13:10 9.8 °C 5.8 °C 1009 hPa NW 3.2 km/h 11.3 km/h 76 % 0 mm
13:15 9.9 °C 6.1 °C 1008.4 hPa Calm   12.9 km/h 77 % 0 mm
13:20 9.8 °C 5.8 °C 1009 hPa NW 3.2 km/h 11.3 km/h 76 % 0 mm
13:25 9.9 °C 6.1 °C 1008.4 hPa North 4.8 km/h 12.9 km/h 77 % 0 mm
13:30 10.4 °C 6.7 °C 1008.4 hPa NW 4.8 km/h 9.7 km/h 77 % 0 mm
13:35 9.9 °C 6.1 °C 1008.4 hPa North 4.8 km/h 12.9 km/h 77 % 0 mm
13:40 10.4 °C 6.6 °C 1008.4 hPa North 3.2 km/h 16.1 km/h 77 % 0 mm
13:45 10.4 °C 6.7 °C 1008 hPa NNW 6.4 km/h 19.3 km/h 76 % 0 mm
13:50 10.4 °C 6.6 °C 1008.4 hPa North 3.2 km/h 16.1 km/h 77 % 0 mm
13:55 10.5 °C 6.4 °C 1008.4 hPa NNW 4.8 km/h 19.3 km/h 76 % 0 mm
14:00 11.1 °C 7.2 °C 1008 hPa North 4.8 km/h 14.5 km/h 76 % 0 mm
14:05 10.5 °C 6.4 °C 1008.4 hPa NNW 4.8 km/h 19.3 km/h 76 % 0 mm
14:10 10.9 °C 6.9 °C 1008 hPa North 4.8 km/h 14.5 km/h 76 % 0 mm
14:15 11.1 °C 6.7 °C 1008 hPa North 3.2 km/h 9.7 km/h 75 % 0 mm
14:20 10.9 °C 6.9 °C 1008 hPa North 4.8 km/h 14.5 km/h 76 % 0 mm
14:25 11.1 °C 6.8 °C 1008 hPa North 3.2 km/h 9.7 km/h 75 % 0 mm
14:30 11.1 °C 6.8 °C 1008 hPa North 3.2 km/h 9.7 km/h 75 % 0 mm
14:35 11.1 °C 6.8 °C 1008 hPa North 3.2 km/h 9.7 km/h 75 % 0 mm
14:39 11.4 °C 7.2 °C 1008 hPa North 1.6 km/h 9.7 km/h 75 % 0 mm
14:40 11.3 °C 7.2 °C 1008 hPa North 3.2 km/h 11.3 km/h 76 % 0 mm
14:45 11.2 °C 6.7 °C 1008 hPa WNW 8 km/h 16.1 km/h 74 % 0 mm
14:50 11.3 °C 7.2 °C 1008 hPa North 3.2 km/h 11.3 km/h 76 % 0 mm
14:55 11.3 °C 6.8 °C 1008 hPa NW 4.8 km/h 16.1 km/h 74 % 0 mm
15:00 11.3 °C 6.8 °C 1008 hPa NW 4.8 km/h 16.1 km/h 74 % 0 mm
15:05 11.3 °C 6.8 °C 1008 hPa NW 4.8 km/h 16.1 km/h 74 % 0 mm
15:10 11 °C 6.7 °C 1008 hPa North 6.4 km/h 17.7 km/h 75 % 0 mm
15:15 10.9 °C 6.7 °C 1008 hPa North 4.8 km/h 12.9 km/h 75 % 0 mm
15:20 11 °C 6.7 °C 1008 hPa North 6.4 km/h 17.7 km/h 75 % 0 mm
15:25 10.9 °C 6.7 °C 1008 hPa North 3.2 km/h 12.9 km/h 75 % 0 mm
15:30 10.7 °C 6.7 °C 1008 hPa North 6.4 km/h 16.1 km/h 76 % 0 mm
15:35 10.9 °C 6.7 °C 1008 hPa North 3.2 km/h 12.9 km/h 75 % 0 mm
15:40 10.7 °C 6.6 °C 1008 hPa North 4.8 km/h 16.1 km/h 76 % 0 mm
15:45 10.1 °C 6.7 °C 1008 hPa NNW 8 km/h 17.7 km/h 78 % 0 mm
15:50 10.7 °C 6.6 °C 1008 hPa North 4.8 km/h 16.1 km/h 76 % 0 mm
15:55 10.2 °C 6.5 °C 1008 hPa North 6.4 km/h 19.3 km/h 78 % 0 mm
16:00 9.9 °C 6.7 °C 1008 hPa North 8 km/h 12.9 km/h 79 % 0 mm
16:05 10.2 °C 6.5 °C 1008 hPa North 6.4 km/h 19.3 km/h 78 % 0 mm
16:10 9.9 °C 6.5 °C 1008.4 hPa North 4.8 km/h 12.9 km/h 79 % 0 mm
16:15 9.8 °C 6.1 °C 1008.4 hPa North 1.6 km/h 14.5 km/h 79 % 0 mm
16:20 9.9 °C 6.5 °C 1008.4 hPa North 4.8 km/h 12.9 km/h 79 % 0 mm
16:25 9.8 °C 6.4 °C 1008.4 hPa North 4.8 km/h 14.5 km/h 79 % 0 mm
16:30 9.8 °C 6.4 °C 1008.4 hPa North 4.8 km/h 14.5 km/h 79 % 0 mm
16:31 9.8 °C 6.1 °C 1008.4 hPa North 3.2 km/h 14.5 km/h 79 % 0 mm
16:35 9.8 °C 6.4 °C 1008.4 hPa North 4.8 km/h 14.5 km/h 79 % 0 mm
16:40 9.8 °C 6.3 °C 1008.4 hPa North 4.8 km/h 14.5 km/h 79 % 0 mm
16:45 9.8 °C 6.3 °C 1008.4 hPa North 4.8 km/h 14.5 km/h 79 % 0 mm
16:46 9.7 °C 6.1 °C 1008.4 hPa North 1.6 km/h 16.1 km/h 79 % 0 mm
16:50 9.8 °C 6.3 °C 1008.4 hPa North 4.8 km/h 14.5 km/h 79 % 0 mm
16:55 9.7 °C 6.3 °C 1008.7 hPa North 3.2 km/h 16.1 km/h 79 % 0 mm
17:00 9.7 °C 6.3 °C 1008.7 hPa North 3.2 km/h 16.1 km/h 79 % 0 mm
17:01 9.2 °C 6.1 °C 1008.4 hPa North 3.2 km/h 16.1 km/h 80 % 0 mm
17:05 9.7 °C 6.3 °C 1008.7 hPa North 3.2 km/h 16.1 km/h 79 % 0 mm
17:10 9.2 °C 5.9 °C 1008.7 hPa North 4.8 km/h 16.1 km/h 80 % 0 mm
17:15 9.2 °C 5.9 °C 1008.7 hPa North 4.8 km/h 16.1 km/h 80 % 0 mm
17:16 8.6 °C 5.6 °C 1008.7 hPa NW 3.2 km/h 17.7 km/h 80 % 0 mm
17:20 9.2 °C 5.9 °C 1008.7 hPa North 4.8 km/h 16.1 km/h 80 % 0 mm
17:25 8.6 °C 5.4 °C 1008.7 hPa North 4.8 km/h 19.3 km/h 80 % 0 mm
17:30 8.6 °C 5.4 °C 1008.7 hPa North 4.8 km/h 19.3 km/h 80 % 0 mm
17:31 8.1 °C 5 °C 1008.7 hPa NW 4.8 km/h 14.5 km/h 80 % 0 mm
17:35 8.6 °C 5.4 °C 1008.7 hPa North 4.8 km/h 19.3 km/h 80 % 0 mm
17:40 8.1 °C 4.9 °C 1008.7 hPa NW 4.8 km/h 14.5 km/h 80 % 0 mm
17:45 8.1 °C 4.9 °C 1008.7 hPa NW 4.8 km/h 14.5 km/h 80 % 0 mm
17:46 7.6 °C 4.4 °C 1009 hPa North 8 km/h 16.1 km/h 81 % 0 mm
17:50 8.1 °C 4.9 °C 1008.7 hPa NW 4.8 km/h 14.5 km/h 80 % 0 mm
17:55 7.6 °C 4.6 °C 1009 hPa NW 6.4 km/h 16.1 km/h 81 % 0 mm
18:00 7.6 °C 4.6 °C 1009 hPa NW 6.4 km/h 16.1 km/h 81 % 0 mm
18:02 7.2 °C 3.9 °C 1009 hPa WNW 3.2 km/h 16.1 km/h 81 % 0 mm
18:05 7.6 °C 4.6 °C 1009 hPa NW 6.4 km/h 16.1 km/h 81 % 0 mm
18:10 7.2 °C 4.2 °C 1009 hPa North 4.8 km/h 16.1 km/h 81 % 0 mm
18:15 7.2 °C 4.2 °C 1009 hPa North 4.8 km/h 16.1 km/h 81 % 0 mm
18:16 6.9 °C 3.9 °C 1009 hPa NNW 4.8 km/h 12.9 km/h 81 % 0 mm
18:20 7.2 °C 4.2 °C 1009 hPa North 4.8 km/h 16.1 km/h 81 % 0 mm
18:25 6.9 °C 3.9 °C 1009.4 hPa North 4.8 km/h 12.9 km/h 81 % 0 mm
18:30 6.9 °C 3.9 °C 1009.4 hPa North 4.8 km/h 12.9 km/h 81 % 0 mm
18:32 6.6 °C 3.9 °C 1009.4 hPa WNW 3.2 km/h 14.5 km/h 82 % 0 mm
18:35 6.9 °C 3.9 °C 1009.4 hPa North 4.8 km/h 12.9 km/h 81 % 0 mm
18:40 6.6 °C 3.8 °C 1009.4 hPa NNW 4.8 km/h 14.5 km/h 82 % 0 mm
18:45 6.6 °C 3.8 °C 1009.4 hPa NNW 4.8 km/h 14.5 km/h 82 % 0 mm
18:46 6.4 °C 3.3 °C 1009.7 hPa NW 3.2 km/h 8 km/h 82 % 0 mm
18:50 6.6 °C 3.8 °C 1009.4 hPa NNW 4.8 km/h 14.5 km/h 82 % 0 mm
18:55 6.4 °C 3.6 °C 1009.7 hPa WNW 3.2 km/h 8 km/h 82 % 0 mm
19:00 6.4 °C 3.6 °C 1009.7 hPa WNW 3.2 km/h 8 km/h 82 % 0 mm
19:01 6.1 °C 3.3 °C 1009.7 hPa NW 6.4 km/h 9.7 km/h 82 % 0 mm
19:05 6.4 °C 3.6 °C 1009.7 hPa WNW 3.2 km/h 8 km/h 82 % 0 mm
19:10 6.1 °C 3.2 °C 1009.7 hPa NW 3.2 km/h 9.7 km/h 82 % 0 mm
19:15 6.1 °C 3.2 °C 1009.7 hPa NW 3.2 km/h 9.7 km/h 82 % 0 mm
19:16 5.7 °C 2.8 °C 1009.7 hPa NW 4.8 km/h 12.9 km/h 82 % 0 mm
19:20 6.1 °C 3.2 °C 1009.7 hPa NW 3.2 km/h 9.7 km/h 82 % 0 mm
19:25 5.7 °C 2.9 °C 1009.7 hPa NW 3.2 km/h 12.9 km/h 82 % 0 mm
19:30 5.7 °C 2.9 °C 1009.7 hPa NW 3.2 km/h 12.9 km/h 82 % 0 mm
19:31 5.3 °C 2.8 °C 1010 hPa NNW 4.8 km/h 12.9 km/h 83 % 0 mm
19:35 5.7 °C 2.9 °C 1009.7 hPa NW 3.2 km/h 12.9 km/h 82 % 0 mm
19:40 5.3 °C 2.7 °C 1010 hPa NW 3.2 km/h 11.3 km/h 83 % 0 mm
19:45 5.3 °C 2.7 °C 1010 hPa NW 3.2 km/h 11.3 km/h 83 % 0 mm
19:46 4.9 °C 2.2 °C 1010.4 hPa NW 6.4 km/h 14.5 km/h 83 % 0 mm
19:50 5.3 °C 2.7 °C 1010 hPa NW 3.2 km/h 11.3 km/h 83 % 0 mm
19:55 5 °C 2.3 °C 1010.4 hPa NW 4.8 km/h 14.5 km/h 83 % 0 mm
20:00 5 °C 2.3 °C 1010.4 hPa NW 4.8 km/h 14.5 km/h 83 % 0 mm
20:01 4.5 °C 1.7 °C 1010.4 hPa NW 4.8 km/h 16.1 km/h 83 % 0 mm
20:05 5 °C 2.3 °C 1010.4 hPa NW 4.8 km/h 14.5 km/h 83 % 0 mm
20:10 4.5 °C 1.9 °C 1010.4 hPa WNW 4.8 km/h 16.1 km/h 83 % 0 mm
20:15 4.5 °C 1.9 °C 1010.4 hPa WNW 4.8 km/h 16.1 km/h 83 % 0 mm
20:16 4.1 °C 1.7 °C 1010.7 hPa WNW 1.6 km/h 17.7 km/h 83 % 0 mm
20:20 4.5 °C 1.9 °C 1010.4 hPa WNW 4.8 km/h 16.1 km/h 83 % 0 mm
20:25 4.2 °C 1.6 °C 1010.7 hPa NW 4.8 km/h 17.7 km/h 83 % 0 mm
20:30 4.2 °C 1.6 °C 1010.7 hPa NW 4.8 km/h 17.7 km/h 83 % 0 mm
20:31 3.5 °C 1.1 °C 1011.1 hPa NNW 6.4 km/h 17.7 km/h 83 % 0 mm
20:35 4.2 °C 1.6 °C 1010.7 hPa NW 4.8 km/h 17.7 km/h 83 % 0 mm
20:40 3.6 °C 0.9 °C 1011.1 hPa NW 6.4 km/h 22.5 km/h 83 % 0 mm
20:45 3.6 °C 0.9 °C 1011.1 hPa NW 6.4 km/h 22.5 km/h 83 % 0 mm
20:46 3.1 °C 0.6 °C 1011.4 hPa NW 6.4 km/h 16.1 km/h 84 % 0 mm
20:50 3.6 °C 0.9 °C 1011.1 hPa NW 6.4 km/h 22.5 km/h 83 % 0 mm
20:55 3.1 °C 0.7 °C 1011.4 hPa NW 6.4 km/h 17.7 km/h 84 % 0 mm
21:00 3.1 °C 0.7 °C 1011.4 hPa NW 6.4 km/h 17.7 km/h 84 % 0 mm
21:01 2.8 °C 0.6 °C 1011.4 hPa NW 4.8 km/h 19.3 km/h 84 % 0 mm
21:05 3.1 °C 0.7 °C 1011.4 hPa NW 6.4 km/h 17.7 km/h 84 % 0 mm
21:10 2.8 °C 0.4 °C 1011.4 hPa NW 4.8 km/h 17.7 km/h 84 % 0 mm
21:15 2.8 °C 0.4 °C 1011.4 hPa NW 4.8 km/h 17.7 km/h 84 % 0 mm
21:16 2.5 °C 0 °C 1011.4 hPa NW 3.2 km/h 17.7 km/h 85 % 0 mm
21:20 2.8 °C 0.4 °C 1011.4 hPa NW 4.8 km/h 17.7 km/h 84 % 0 mm
21:25 2.6 °C 0.1 °C 1011.7 hPa NW 6.4 km/h 17.7 km/h 84 % 0 mm
21:30 2.6 °C 0.1 °C 1011.7 hPa NW 6.4 km/h 17.7 km/h 84 % 0 mm
21:31 2.3 °C 0 °C 1011.7 hPa NNW 8 km/h 14.5 km/h 85 % 0 mm
21:35 2.6 °C 0.1 °C 1011.7 hPa NW 6.4 km/h 17.7 km/h 84 % 0 mm
21:40 2.4 °C 0.1 °C 1011.7 hPa NW 6.4 km/h 19.3 km/h 85 % 0 mm
21:45 2.4 °C 0.1 °C 1011.7 hPa NW 6.4 km/h 19.3 km/h 85 % 0 mm
21:46 2.3 °C 0 °C 1011.7 hPa North 3.2 km/h 12.9 km/h 84 % 0 mm
21:50 2.4 °C 0.1 °C 1011.7 hPa NW 6.4 km/h 19.3 km/h 85 % 0 mm
21:55 2.3 °C -0.1 °C 1011.7 hPa NW 6.4 km/h 14.5 km/h 84 % 0 mm
22:00 2.3 °C -0.1 °C 1011.7 hPa NW 6.4 km/h 14.5 km/h 84 % 0 mm
22:01 2.3 °C 0 °C 1011.7 hPa NW 6.4 km/h 16.1 km/h 85 % 0 mm
22:05 2.3 °C -0.1 °C 1011.7 hPa NW 6.4 km/h 14.5 km/h 84 % 0 mm
22:10 2.3 °C -0.1 °C 1012.1 hPa NW 6.4 km/h 20.9 km/h 84 % 0 mm
22:15 2.3 °C -0.1 °C 1012.1 hPa NW 6.4 km/h 20.9 km/h 84 % 0 mm
22:16 2.4 °C 0 °C 1011.7 hPa WNW 4.8 km/h 16.1 km/h 84 % 0 mm
22:20 2.3 °C -0.1 °C 1012.1 hPa NW 6.4 km/h 20.9 km/h 84 % 0 mm
22:25 2.4 °C 0 °C 1012.1 hPa NW 4.8 km/h 16.1 km/h 84 % 0 mm
22:30 2.4 °C 0 °C 1012.1 hPa NW 4.8 km/h 16.1 km/h 84 % 0 mm
22:31 2.4 °C 0 °C 1012.1 hPa NW 6.4 km/h 16.1 km/h 84 % 0 mm
22:35 2.4 °C 0 °C 1012.1 hPa NW 4.8 km/h 16.1 km/h 84 % 0 mm
22:40 2.4 °C 0 °C 1012.1 hPa NW 6.4 km/h 17.7 km/h 84 % 0 mm
22:45 2.4 °C 0 °C 1012.1 hPa NW 6.4 km/h 17.7 km/h 84 % 0 mm
22:46 2.2 °C 0 °C 1012.4 hPa North 4.8 km/h 17.7 km/h 84 % 0 mm
22:50 2.4 °C 0 °C 1012.1 hPa NW 6.4 km/h 17.7 km/h 84 % 0 mm
22:55 1.9 °C -0.5 °C 1012.4 hPa NW 4.8 km/h 6.4 km/h 84 % 0 mm
23:00 1.9 °C -0.5 °C 1012.4 hPa NW 4.8 km/h 6.4 km/h 84 % 0 mm
23:01 1.8 °C -0.6 °C 1012.4 hPa NNW 9.7 km/h 14.5 km/h 84 % 0 mm
23:05 1.9 °C -0.5 °C 1012.4 hPa NW 4.8 km/h 6.4 km/h 84 % 0 mm
23:10 1.8 °C -0.6 °C 1012.4 hPa North 4.8 km/h 14.5 km/h 84 % 0 mm
23:15 1.8 °C -0.6 °C 1012.4 hPa North 4.8 km/h 14.5 km/h 84 % 0 mm
23:18 1.6 °C -1.1 °C 1012.8 hPa North 4.8 km/h 16.1 km/h 84 % 0 mm
23:20 1.8 °C -0.6 °C 1012.4 hPa North 4.8 km/h 14.5 km/h 84 % 0 mm
23:25 1.6 °C -0.8 °C 1012.8 hPa NNW 6.4 km/h 17.7 km/h 84 % 0 mm
23:30 1.6 °C -0.8 °C 1012.8 hPa NNW 6.4 km/h 17.7 km/h 84 % 0 mm
23:32 1.5 °C -0.6 °C 1012.8 hPa NW 4.8 km/h 17.7 km/h 85 % 0 mm
23:35 1.6 °C -0.8 °C 1012.8 hPa NNW 6.4 km/h 17.7 km/h 84 % 0 mm
23:40 1.5 °C -0.7 °C 1012.8 hPa WNW 6.4 km/h 17.7 km/h 85 % 0 mm
23:45 1.5 °C -0.7 °C 1012.8 hPa WNW 6.4 km/h 17.7 km/h 85 % 0 mm
23:46 1.4 °C -0.6 °C 1012.8 hPa NW 4.8 km/h 16.1 km/h 85 % 0 mm
23:50 1.5 °C -0.7 °C 1012.8 hPa WNW 6.4 km/h 17.7 km/h 85 % 0 mm
Des Moines Weather and Climate
Compliments of Weather Underground - 4.5 mb

Script developed by  Jim McMurry - jmcmurry@mwt.net Adapted for the template by  Wim van der Kuil - Leuven-Template.eu

You find our weather info also at:

Weather Underground

Equipment we use:

Weather-station
Davis VP2 Plus

Weather-program
Davis Weatherlink.Com

Weather-server
iMac (Retina 4K, 21.5-inch, Late 2015)

Provider
Hostmonster.com

Davis VP2 Plus

Davis Weatherlink.Com

iMac (Retina 4K, 21.5-inch, Late 2015)

Hostmonster.com